Skip Page Navigation
NASA JPL Caltech
NASA Logo - Jet Propulsion Laboratory + View the NASA Portal
+ Center for Near-Earth Object Studies
JPL Home Earth Solar System Stars & Galaxies Technology
JPL Solar System Dynamics
BODIES ORBITS EPHEMERIDES TOOLS PHYSICAL DATA DISCOVERY FAQ SITE MAP
IMPORTANT: The SSD Announcement email list is now available. Major changes are coming in the near future, including possible hostname and/or URL changes. To be notified of such changes, subscribe to this email list.

Please visit this page for more details.


JPL Small-Body Database Browser
Search: [ help ]  
392924 (2012 VW96)
Classification: Main-belt Asteroid          SPK-ID: 2392924
Ephemeris | Orbit Diagram | Orbital Elements | Mission Design | Physical Parameters | Discovery Circumstances | Close-Approach Data ]

[ show orbit diagram ]
Orbital Elements at Epoch 2458600.5 (2019-Apr-27.0) TDB
Reference: JPL 13 (heliocentric ecliptic J2000)
 Element Value Uncertainty (1-sigma)   Units 
e .117076396026296 9.8361e-08  
a 2.414479665042888 3.2088e-08 au
q 2.131801087580889 2.5411e-07 au
i 7.490536319163773 8.9062e-06 deg
node 72.44166623614588 6.9094e-05 deg
peri 301.1012498237068 8.2233e-05 deg
M 288.8924521142924 4.0488e-05 deg
tp 2458871.174259087383
(2020-Jan-22.67425909)
0.00015387 TDB
period 1370.357102287922
3.75
2.7318e-05
7.479e-08
d
yr
n .2627052462449028 5.2369e-09 deg/d
Q 2.697158242504888 3.5845e-08 au
  Orbit Determination Parameters
   # obs. used (total)      71  
   data-arc span      7911 days (21.66 yr)  
   first obs. used      1997-11-28  
   last obs. used      2019-07-27  
   planetary ephem.      DE431  
   SB-pert. ephem.      SB431-N16  
   condition code      0  
   norm. resid. RMS      .6896  
   source      ORB  
   producer      Otto Matic  
   solution date      2019-Sep-24 07:09:21  

Additional Information
 Earth MOID = 1.14378 au 
 Jupiter MOID = 2.77423 au 
 T_jup = 3.497 
[ show covariance matrix ]

Ephemeris | Orbit Diagram | Orbital Elements | Mission Design | Physical Parameters | Discovery Circumstances | Close-Approach Data ]

Physical Parameter Table
Parameter Symbol Value Units Sigma Reference Notes
absolute magnitude H 17.3   n/a MPO440695  

392924 (2012 VW96)          Discovered 2007-Apr-20 by Spacewatch at Kitt Peak
Reference: Last Updated: 2014-04-17

[ show close-approach data ]
Ephemeris | Orbit Diagram | Orbital Elements | Mission Design | Physical Parameters | Discovery Circumstances | Close-Approach Data ]
ABOUT SSD CREDITS/AWARDS PRIVACY/COPYRIGHT GLOSSARY LINKS
FirstGov
(server date/time)  
NASA Home Page
Site Manager:   Ryan S. Park
Webmaster  Alan B. Chamberlin